DELTA 1 R/B, 515

Orbit data source: Space-Track

DELTA 1 R/B, 515 is space debris originally from a launch on Thu, 13 Dec 1962 UTC launched from the Air Force Eastern Test Range (AFETR). Debris objects in space refer to the collection of defunct objects orbiting the Earth. Examples of debris include non-operational satellites, rocket bodies, and fragments generated from explosions, collisions, or faulty payload assembly.

Loading next visibility...
Identifier
515, 1962-068B
Orbit
Active
Country
Flag of USUS
Related business
Manufacturer
ABL
Mission
Spacecraft
Bus & Motor
ALTAIR, Unknown motor
Mass
24 kg wet, 24 kg dry
Launch date (UTC)
1962-12-13 (63 years ago)
Launch vehicle
Unknown
Launch site
Air Force Eastern Test Range (AFETR)
Object type
Payload
Rocket body
Debris
Shape & HBR
Unknown
Radar Cross Section
Medium (>0.1 m² and <1 m²)

Expand to show TLE details & history
Last TLE update: 2 days ago

TLE from 2 days ago
0 DELTA 1 R/B
1 00515U 62068B   25352.09280819 -.00000032  00000-0  00000-0 0  9993
2 00515  47.4955 229.9931 2835189  58.9977 325.8714  7.79283081793737
Epoch: 2025-12-18T02:13Z
TLE epoch observation values (Epoch: 2025-12-18T02:13:38.627Z)
Latitude
-0.00001°
Longitude
109.62888°
Altitude
2,243.043 km
Speed
7.443 km/s
True Right ascension
15h 19m 58s
True Declination
0° 00' 00"
Sunlit
Object was in daylight at epoch
Visualization orbit readout
Latitude
Unknown
Longitude
Unknown
Altitude
Unknown
Speed
Unknown
Apparent Right ascension
Unknown
Apparent Declination
Unknown
Sunlit
N/A
Visualization observer readout
Local Sidereal Time
17:25:47
Azimuth
Unknown
Elevation
Unknown
Doppler factor
Unknown
Orbital elements
Apogee altitude
7,416.457 km
Perigee altitude
1,322.229 km
Semi-major axis
10,747.48 km
Eccentricity
0.28352
Inclination
47.4955°
RAAN
229.9931°
Arg. of periapsis
58.9977°
True anomaly
301.07231°
Mean anomaly
325.8714°
Eccentric anomaly
314.2319°
Mean motion
1.94797 °/min
Orbital period
184.81 mins
BSTAR
0
Loading maneuver chart data...
Computing Atmospheric mass density...
Loading historical data...
Loading historical data...
Loading historical data...
Loading historical data...
Loading historical data...
Loading historical data...
Loading historical data...
Other satellites on launch #68 in the year 1962 (1962-12-13 UTC)

Documentation

Showing up to 5 results
|